Live Position
Loading 3D Globe...
About Flock 4g-1
Group: 3 satellites
Description loading...
Upcoming Passes
Passes for default location (London). Set your location on the main map for personalized predictions.
Altitude History
Loading altitude history...
No altitude history available
Two-Line Element Set
1 62666U 25009BK 26106.94012016 .00006395 00000-0 23396-3 0 9999
2 62666 97.4032 189.2520 0005025 163.4230 196.7175 15.28393873 69551
Epoch: Apr 16, 2026 •
Age: 10 hours
Current Status
Altitude 499.6 km
Velocity 7.61 km/s
Sub-Earth Point -51.82°S,
19.67°E
Launch Date Jan 14, 2025
Age 1.2 years
Type earth observation
Technical Details
Classification Payload
Mass 5.70 kg
Dry Mass 5.70 kg
Total Mass 5.70 kg
Length 0.30 m
Diameter 0.10 m
Span 0.30 m
Shape Box+2 pan
Manufacturer PLAN
Bus Type Cubesat 3U
Phase Status In Orbit
Owner/State PLAN/US
Most Searched
Loading...